カタログに戻る

ONEWEB-0699

運用中通信PO
NORAD 61605·PAYLOAD·🇬🇧 United Kingdom

打ち上げ Oct 20, 2024 から Vandenberg Space Force Base

Loading…

次のパス (今後24時間)

TLE

最新Source: CelesTrak SupGP

元期: Sep 14, 2026, 23:01 UTC

1 61605C 24188M   26257.95921713 -.00001424  00000+0 -40828-2 0  2573
2 61605  87.8916  18.3924 0001273  82.0357  30.7498 13.10378095    13

AllMySatでONEWEB-0699をリアルタイム追跡

Download on the App Store